Regional Weather Roundup
Issued by NWS

Home | Current Version | Previous Version | Text Only | Print | Product List | Glossary Off
Versions: 1 2 3 4 5 6 7 8 9 10 11 12 13 14 15 16 17 18 19 20 21 22 23 24 25 26 27

000
ASUS45 KTFX 272010
RWRMT
MONTANA REGIONAL WEATHER ROUNDUP
NATIONAL WEATHER SERVICE GREAT FALLS MT
200 PM MDT FRI MAY 27 2016

NOTE: "FAIR" INDICATES FEW OR NO CLOUDS BELOW 12000 FEET WITH NO
SIGNIFICANT WEATHER AND/OR OBSTRUCTIONS TO VISIBILITY.

MTZ001>007-043-272100-
WEST OF THE DIVIDE

CITY           SKY/WX    TMP DP  RH WIND       PRES   REMARKS
KALISPELL      CLOUDY    58  43  57 SE13      29.93F
MISSOULA       CLOUDY    59  39  47 NW10      29.96S
BUTTE          LGT RAIN  51  39  63 SW7       29.92R
MULLAN PASS    CLOUDY    37  30  75 VRB6      30.00S
ANACONDA         N/A     46  41  81 W8        29.94R
DEER LODGE       N/A     48  43  81 W14       29.93S
EUREKA           N/A     61  36  39 S8G26     29.92F
HAMILTON         N/A     54  37  54 W13G24    29.94R
LIBBY            N/A     57  36  44 N3        29.96F
$$

MTZ008-052>055-272100-
SOUTHWEST MONTANA

CITY           SKY/WX    TMP DP  RH WIND       PRES   REMARKS
BOZEMAN        CLOUDY    58  43  57 SE3       29.89F
DILLON         CLOUDY    54  39  57 CALM      29.89F
W YELLOWSTONE  CLOUDY    54  39  58 SW5       29.93F
ENNIS          SUNNY     55  39  54 SW7G14    29.94F
$$

MTZ009-010-012-014-046-048-049-054-272100-
EAST SLOPES AND CENTRAL MONTANA

CITY           SKY/WX    TMP DP  RH WIND       PRES   REMARKS
CUT BANK       PTSUNNY   60  38  43 W28G35    29.85S
GREAT FALLS    MOSUNNY   66  38  35 SW18      29.83F
MALMSTROM AFB  CLOUDY    65  39  37 SW9G20    29.84F
HELENA         MOSUNNY   60  44  55 E7        29.88S
CHOTEAU          N/A     64  37  36 W12G24    29.85S
$$

MTZ011-013-016-021-045-047-050-051-272100-
NORTH CENTRAL MONTANA

CITY           SKY/WX    TMP DP  RH WIND       PRES   REMARKS
HAVRE          CLOUDY    68  50  52 SE9       29.82F
LEWISTOWN      CLOUDY    60  44  55 NW17G24   29.87R
N BAR RANCH    CLOUDY    50  46  87 S7        29.91R
CHINOOK          N/A     66  50  55 E7        29.82F
$$

MTZ017>020-022>027-061-062-272100-
NORTHEAST MONTANA

CITY           SKY/WX    TMP DP  RH WIND       PRES   REMARKS
GLASGOW        CLOUDY    67  45  45 MISG      29.84F
JORDAN           N/A     64  48  56 E9        29.86S
SIDNEY         CLOUDY    64  50  59 CALM      29.85S
WOLF POINT     CLOUDY    69  48  47 E8        29.85F
PLENTYWOOD       N/A     64  48  55 NE6       29.86F
POPLAR           N/A     66  50  55 CALM      29.85F
$$

MTZ028>42-056>058-272100-
SOUTHCENTRAL AND SOUTHEAST MONTANA

CITY           SKY/WX    TMP DP  RH WIND       PRES   REMARKS
BAKER          CLOUDY    64  46  52 N5        29.86S
BILLINGS       MOSUNNY   70  42  36 VRB5      29.83F
LIVINGSTON     MOSUNNY   60  41  49 VRB5      29.87F
MILES CITY     SUNNY     65  49  56 CALM      29.85F
FORSYTH          N/A     63  48  59 N6        29.85F
$$

REGIONAL REPORTS...DAKOTAS

CITY           SKY/WX    TMP DP  RH WIND       PRES   REMARKS
WILLISTON      CLOUDY    67  50  54 NE9       29.85S
MINOT          PTSUNNY   68  53  58 NE6       29.81F
DICKINSON      PTSUNNY   67  42  40 E8        29.82F
BEACH            N/A     68  37  32 NE6       29.87F
CROSBY         CLOUDY    61  59  94 E14       29.88S
WATFORD CITY   PTSUNNY   63  50  63 NE7       29.85S
BISMARCK       PTSUNNY   68  47  46 NE8       29.82S
GRAND FORKS    PTSUNNY   73  52  47 VRB3      29.77F
FARGO          CLOUDY    76  57  51 N14       29.73F
BUFFALO SD       N/A     61  48  62 N7        29.79S
RAPID CITY     CLOUDY    63  46  54 N14       29.86S
$$

REGIONAL REPORTS...WYOMING/IDAHO/WASHINGTON

CITY           SKY/WX    TMP DP  RH WIND       PRES   REMARKS
GILLETTE       PTSUNNY   64  41  42 N15G21    29.87F
SHERIDAN       PTSUNNY   68  44  42 CALM      29.86F
BUFFALO WY     PTSUNNY   63  43  48 N6        29.90S
CODY           CLOUDY    64  39  39 NE6       29.84F
YELLOWSTONE LA   N/A     41  35  79 VRB3      30.05R
IDAHO FALLS    PTSUNNY   65  39  38 SW20G29   29.91F
SALMON         PTSUNNY   57  43  58 N5        29.87F
BOISE          SUNNY     64  32  30 NW16G25   29.98F
SPOKANE        PTSUNNY   57  32  38 SW18G29   29.99F
$$

REGIONAL REPORTS...ALBERTA

CITY           SKY/WX    TMP DP  RH WIND       PRES   REMARKS
EDMONTON       PTSUNNY   61  52  72 SW3       29.74F
CALGARY        TSTM      50  46  87 E3        29.80R
LETHBRIDGE     PTSUNNY   63  37  39 W29G36    29.81R
MEDICINE HAT   TSTM      54  50  87 W3        29.81R
WATERTON GATE    N/A     50  34  53 SW14G21     N/A
CARDSTON         N/A     54  36  50 W14G22      N/A
MILK RIVER       N/A     64  36  34 W12G20      N/A
$$

REGIONAL REPORTS...SASKATCHEWAN

CITY           SKY/WX    TMP DP  RH WIND       PRES   REMARKS
SWIFT CURRENT  MOSUNNY   66  48  52 SE10G17   29.86F
REGINA         PTSUNNY   70  52  52 E15       29.86F
SASKATOON      LGT RAIN  68  48  49 SW14      29.87S
CYPRESS HILLS    N/A     61  43  51 SE12G17     N/A
VAL MARIE        N/A     66  45  45 SE8         N/A
ROCKGLEN         N/A     63  50  63 E6          N/A
ASSINIBOIA       N/A     63  50  63 SE12G21     N/A
$$




USA.gov is the U.S. government's official web portal to all federal, state and local government web resources and services.